EFW61U LEAL-EGKK

Flight info

Callsign EFW61U
Flight time 2h 21m
Altitude 34000
Route MITOS N608 COMPI Y90 USKAR DCT MOPAS DCT GIROM DCT GONUP DCT MANAK DCT EPAPU UM184 EKRAS UT507 REVTU UP88 VASUX
Aircraft A320/M-SDE3FGHIJ1KRWXY/LB1

Departure

Time 2026-05-04 18:36
Airport Alicante-Elche Miguel Hernández Airport (LEAL)

Arrival

Time 2026-05-04 20:57
Airport London Gatwick Airport (EGKK)
Time Latitude Longitude Altitude Speed Heading
2026-05-04 17:56 38.28552 -0.55403 93 ft 0 kts 10°
2026-05-04 18:24 38.28545 -0.55404 93 ft 4 kts 10°
2026-05-04 18:24 38.28519 -0.55410 94 ft 4 kts 10°
2026-05-04 18:25 38.28495 -0.55416 96 ft 2 kts 10°
2026-05-04 18:25 38.28475 -0.55416 96 ft 4 kts 309°
2026-05-04 18:25 38.28467 -0.55387 95 ft 3 kts 280°
2026-05-04 18:25 38.28464 -0.55365 95 ft 0 kts 280°
2026-05-04 18:29 38.28464 -0.55372 95 ft 2 kts 280°
2026-05-04 18:30 38.28478 -0.55466 97 ft 6 kts 280°
2026-05-04 18:30 38.28487 -0.55533 101 ft 9 kts 280°
2026-05-04 18:30 38.28471 -0.55595 99 ft 6 kts 206°
2026-05-04 18:31 38.28417 -0.55608 98 ft 10 kts 190°
2026-05-04 18:31 38.28373 -0.55660 96 ft 11 kts 278°
2026-05-04 18:31 38.28387 -0.55761 96 ft 12 kts 280°
2026-05-04 18:31 38.28403 -0.55877 96 ft 15 kts 280°
2026-05-04 18:32 38.28424 -0.56026 97 ft 20 kts 280°
2026-05-04 18:32 38.28451 -0.56220 100 ft 24 kts 280°
2026-05-04 18:32 38.28480 -0.56424 109 ft 22 kts 280°
2026-05-04 18:32 38.28506 -0.56610 117 ft 21 kts 280°
2026-05-04 18:33 38.28532 -0.56797 123 ft 22 kts 280°
2026-05-04 18:33 38.28559 -0.56989 133 ft 22 kts 280°
2026-05-04 18:33 38.28585 -0.57182 142 ft 21 kts 279°
2026-05-04 18:33 38.28608 -0.57343 149 ft 12 kts 280°
2026-05-04 18:34 38.28591 -0.57415 150 ft 9 kts 209°
2026-05-04 18:34 38.28519 -0.57436 150 ft 12 kts 190°
2026-05-04 18:34 38.28462 -0.57448 152 ft 6 kts 189°
2026-05-04 18:34 38.28440 -0.57413 151 ft 7 kts 100°
2026-05-04 18:35 38.28422 -0.57278 147 ft 37 kts 99°
2026-05-04 18:35 38.28334 -0.56647 127 ft 104 kts 99°
2026-05-04 18:35 38.28174 -0.55511 92 ft 155 kts 100°
2026-05-04 18:35 38.27969 -0.54087 470 ft 162 kts 104°
2026-05-04 18:36 38.27741 -0.52683 1042 ft 163 kts 103°
2026-05-04 18:36 38.27499 -0.51242 1454 ft 175 kts 103°
2026-05-04 18:36 38.27416 -0.49630 1698 ft 197 kts 79°
2026-05-04 18:36 38.27972 -0.47935 1923 ft 223 kts 58°
2026-05-04 18:37 38.28865 -0.46185 2283 ft 247 kts 57°
2026-05-04 18:37 38.29865 -0.44291 2795 ft 265 kts 56°
2026-05-04 18:37 38.30916 -0.42315 3586 ft 273 kts 56°
2026-05-04 18:37 38.31989 -0.40284 4415 ft 279 kts 55°
2026-05-04 18:38 38.32966 -0.38130 5195 ft 286 kts 66°
2026-05-04 18:38 38.33709 -0.35758 5990 ft 291 kts 67°
2026-05-04 18:38 38.34455 -0.33336 6767 ft 297 kts 66°
2026-05-04 18:38 38.35210 -0.30906 7547 ft 301 kts 66°
2026-05-04 18:39 38.35978 -0.28412 8312 ft 305 kts 67°
2026-05-04 18:39 38.36773 -0.25892 9063 ft 309 kts 66°
2026-05-04 18:39 38.37611 -0.23348 9806 ft 313 kts 66°
2026-05-04 18:39 38.38475 -0.20771 10326 ft 325 kts 66°
2026-05-04 18:40 38.39396 -0.18032 10519 ft 346 kts 66°
2026-05-04 18:40 38.40355 -0.15175 11010 ft 355 kts 66°
2026-05-04 18:40 38.41322 -0.12292 11595 ft 361 kts 66°
2026-05-04 18:40 38.42332 -0.09292 12201 ft 366 kts 64°
2026-05-04 18:41 38.43626 -0.06537 12777 ft 369 kts 50°
2026-05-04 18:41 38.45432 -0.04211 13369 ft 371 kts 34°
2026-05-04 18:41 38.47627 -0.02509 13945 ft 369 kts 19°
2026-05-04 18:41 38.50062 -0.01543 14477 ft 365 kts
2026-05-04 18:42 38.52581 -0.01315 15019 ft 362 kts 354°
2026-05-04 18:42 38.55118 -0.01311 15582 ft 366 kts 354°
2026-05-04 18:42 38.57671 -0.01299 16141 ft 370 kts 354°
2026-05-04 18:42 38.60254 -0.01283 16697 ft 373 kts 354°
2026-05-04 18:43 38.62827 -0.01266 17236 ft 377 kts 354°
2026-05-04 18:43 38.65470 -0.01250 17821 ft 381 kts 353°
2026-05-04 18:43 38.68123 -0.01232 18350 ft 383 kts 353°
2026-05-04 18:43 38.70796 -0.01213 18824 ft 387 kts 353°
2026-05-04 18:44 38.73505 -0.01197 19354 ft 391 kts 353°
2026-05-04 18:44 38.74425 -0.01192 19531 ft 392 kts 353°
2026-05-04 18:44 38.78991 -0.01165 20330 ft 397 kts 353°
2026-05-04 18:44 38.81767 -0.01143 20786 ft 400 kts 353°
2026-05-04 18:45 38.84529 -0.01123 21239 ft 404 kts 353°
2026-05-04 18:45 38.87348 -0.01105 21681 ft 407 kts 353°
2026-05-04 18:45 38.90189 -0.01088 22158 ft 410 kts 353°
2026-05-04 18:45 38.93053 -0.01070 22621 ft 413 kts 353°
2026-05-04 18:46 38.95941 -0.01048 23083 ft 417 kts 353°
2026-05-04 18:46 38.98852 -0.01026 23541 ft 420 kts 353°
2026-05-04 18:46 39.01787 -0.01003 23931 ft 423 kts 353°
2026-05-04 18:46 39.04746 -0.00978 24337 ft 426 kts 353°
2026-05-04 18:47 39.07715 -0.00955 24740 ft 428 kts 353°
2026-05-04 18:47 39.10655 -0.00930 25117 ft 429 kts 353°
2026-05-04 18:47 39.13652 -0.00912 25520 ft 432 kts 353°
2026-05-04 18:47 39.16666 -0.00900 25916 ft 434 kts 353°
2026-05-04 18:48 39.19696 -0.00890 26301 ft 436 kts 353°
2026-05-04 18:48 39.22730 -0.00873 26677 ft 438 kts 353°
2026-05-04 18:48 39.25783 -0.00854 27029 ft 441 kts 353°
2026-05-04 18:48 39.28861 -0.00835 27391 ft 443 kts 353°
2026-05-04 18:49 39.31905 -0.00812 27744 ft 445 kts 353°
2026-05-04 18:49 39.35018 -0.00561 28085 ft 454 kts
2026-05-04 18:49 39.38135 0.00325 28435 ft 464 kts 10°
2026-05-04 18:49 39.41245 0.01491 28741 ft 467 kts 10°
2026-05-04 18:50 39.44377 0.02656 29074 ft 469 kts 10°
2026-05-04 18:50 39.47526 0.03820 29402 ft 472 kts 10°
2026-05-04 18:50 39.50692 0.04986 29730 ft 474 kts 10°
2026-05-04 18:50 39.53874 0.06152 30068 ft 476 kts 10°
2026-05-04 18:51 39.57023 0.07308 30329 ft 477 kts
2026-05-04 18:51 39.60225 0.08490 30609 ft 480 kts 10°
2026-05-04 18:51 39.63444 0.09685 30863 ft 483 kts 10°
2026-05-04 18:51 39.66677 0.10889 31130 ft 485 kts 10°
2026-05-04 18:52 39.69920 0.12099 31469 ft 485 kts 10°
2026-05-04 18:52 39.73164 0.13313 31858 ft 484 kts 10°
2026-05-04 18:52 39.76396 0.14522 32247 ft 483 kts 10°
2026-05-04 18:52 39.79629 0.15732 32641 ft 483 kts 10°
2026-05-04 18:53 39.82811 0.16922 33065 ft 482 kts 10°
2026-05-04 18:53 39.86030 0.18125 33470 ft 481 kts 10°
2026-05-04 18:53 39.89243 0.19325 33841 ft 481 kts 10°
2026-05-04 18:54 39.95631 0.21712 33961 ft 474 kts
2026-05-04 18:54 40.01945 0.24082 33959 ft 471 kts 10°
2026-05-04 18:55 40.08250 0.26448 33967 ft 472 kts 10°
2026-05-04 18:55 40.17678 0.29993 33972 ft 472 kts 10°
2026-05-04 18:56 40.23985 0.32370 33975 ft 471 kts 10°
2026-05-04 18:56 40.30280 0.34748 33992 ft 471 kts 11°
2026-05-04 18:57 40.36587 0.37140 33989 ft 472 kts 11°
2026-05-04 18:57 40.42849 0.39513 33962 ft 472 kts 11°
2026-05-04 18:58 40.49167 0.41913 33980 ft 472 kts 11°
2026-05-04 18:58 40.55482 0.44327 33975 ft 473 kts 11°
2026-05-04 18:59 40.61802 0.46744 33973 ft 472 kts 11°
2026-05-04 18:59 40.68063 0.49153 33960 ft 472 kts 11°
2026-05-04 19:00 40.74369 0.51580 33955 ft 472 kts 11°
2026-05-04 19:00 40.80681 0.54007 33953 ft 473 kts 11°
2026-05-04 19:01 40.86996 0.56437 33952 ft 471 kts 11°
2026-05-04 19:01 40.93246 0.58837 33964 ft 471 kts 11°
2026-05-04 19:02 40.99555 0.61284 33945 ft 473 kts 12°
2026-05-04 19:02 41.05837 0.63771 33923 ft 471 kts 12°
2026-05-04 19:03 41.12148 0.66195 33926 ft 472 kts 11°
2026-05-04 19:03 41.18405 0.68621 33953 ft 471 kts 12°
2026-05-04 19:04 41.24693 0.71085 33952 ft 471 kts 12°
2026-05-04 19:04 41.30986 0.73538 33951 ft 471 kts 12°
2026-05-04 19:05 41.37289 0.75996 33967 ft 472 kts 12°
2026-05-04 19:05 41.43595 0.78464 33941 ft 473 kts 12°
2026-05-04 19:06 41.49896 0.80941 33955 ft 478 kts 12°
2026-05-04 19:06 41.56242 0.83460 33974 ft 475 kts 12°
2026-05-04 19:07 41.62573 0.85954 33965 ft 474 kts 12°
2026-05-04 19:07 41.68897 0.88449 33952 ft 474 kts 12°
2026-05-04 19:08 41.75260 0.90956 33966 ft 476 kts 12°
2026-05-04 19:08 41.81594 0.93482 33941 ft 474 kts 13°
2026-05-04 19:09 41.87899 0.95996 34003 ft 474 kts 13°
2026-05-04 19:09 41.94222 0.98502 34003 ft 473 kts 13°
2026-05-04 19:10 42.00519 1.01012 34020 ft 471 kts 13°
2026-05-04 19:10 42.06771 1.03537 34003 ft 472 kts 13°
2026-05-04 19:11 42.13098 1.05835 33982 ft 469 kts
2026-05-04 19:11 42.19500 1.06036 33964 ft 458 kts 349°
2026-05-04 19:12 42.29013 1.04997 33952 ft 458 kts 350°
2026-05-04 19:13 42.35341 1.04325 33948 ft 460 kts 350°
2026-05-04 19:13 42.41713 1.03636 33973 ft 459 kts 350°
2026-05-04 19:14 42.48074 1.02948 33974 ft 458 kts 351°
2026-05-04 19:14 42.54270 1.01496 33964 ft 446 kts 333°
2026-05-04 19:15 42.60067 0.98477 33954 ft 447 kts 333°
2026-05-04 19:15 42.65796 0.95447 33972 ft 444 kts 333°
2026-05-04 19:16 42.71552 0.92401 33965 ft 444 kts 333°
2026-05-04 19:16 42.77334 0.89371 33943 ft 447 kts 334°
2026-05-04 19:17 42.83162 0.86419 33941 ft 446 kts 334°
2026-05-04 19:17 42.89013 0.83514 33962 ft 447 kts 334°
2026-05-04 19:18 42.94845 0.80594 33987 ft 450 kts 334°
2026-05-04 19:18 43.00696 0.77603 33994 ft 449 kts 334°
2026-05-04 19:19 43.06541 0.74601 34033 ft 449 kts 334°
2026-05-04 19:19 43.12401 0.71616 34024 ft 450 kts 334°
2026-05-04 19:20 43.18224 0.68640 34019 ft 450 kts 334°
2026-05-04 19:20 43.24082 0.65631 34023 ft 450 kts 335°
2026-05-04 19:21 43.29948 0.62620 34010 ft 450 kts 335°
2026-05-04 19:21 43.35818 0.59605 34003 ft 450 kts 335°
2026-05-04 19:22 43.41643 0.56604 33996 ft 450 kts 335°
2026-05-04 19:22 43.47508 0.53591 33994 ft 450 kts 335°
2026-05-04 19:23 43.53381 0.50582 33975 ft 451 kts 335°
2026-05-04 19:23 43.58268 0.48078 33972 ft 451 kts 335°
2026-05-04 19:24 43.65110 0.44550 33977 ft 452 kts 335°
2026-05-04 19:24 43.71005 0.41498 33967 ft 453 kts 335°
2026-05-04 19:25 43.75906 0.38961 33962 ft 453 kts 335°
2026-05-04 19:25 43.81823 0.35891 33988 ft 454 kts 335°
2026-05-04 19:26 43.87740 0.32812 33988 ft 455 kts 335°
2026-05-04 19:26 43.93671 0.29711 33979 ft 456 kts 335°
2026-05-04 19:27 43.99618 0.26616 33985 ft 457 kts 335°
2026-05-04 19:27 44.05571 0.23510 33994 ft 457 kts 335°
2026-05-04 19:28 44.11483 0.20408 33972 ft 457 kts 335°
2026-05-04 19:28 44.17442 0.17277 33981 ft 458 kts 335°
2026-05-04 19:29 44.23409 0.14123 33998 ft 460 kts 336°
2026-05-04 19:29 44.29396 0.10962 33983 ft 460 kts 336°
2026-05-04 19:30 44.35379 0.07810 33991 ft 460 kts 336°
2026-05-04 19:30 44.41327 0.04652 33992 ft 460 kts 335°
2026-05-04 19:31 44.47311 0.01462 33983 ft 461 kts 336°
2026-05-04 19:31 44.53307 -0.01729 34009 ft 461 kts 336°
2026-05-04 19:32 44.59296 -0.04920 33995 ft 460 kts 336°
2026-05-04 19:32 44.65274 -0.08114 33995 ft 459 kts 336°
2026-05-04 19:33 44.71195 -0.11284 33992 ft 458 kts 336°
2026-05-04 19:33 44.77149 -0.14491 33982 ft 458 kts 336°
2026-05-04 19:34 44.83109 -0.17709 33981 ft 458 kts 336°
2026-05-04 19:34 44.89067 -0.20926 33976 ft 459 kts 336°
2026-05-04 19:35 44.94989 -0.24118 33975 ft 459 kts 336°
2026-05-04 19:35 45.00942 -0.27332 33980 ft 458 kts 336°
2026-05-04 19:36 45.06893 -0.30563 33969 ft 459 kts 336°
2026-05-04 19:36 45.12860 -0.33818 33973 ft 460 kts 336°
2026-05-04 19:37 45.18831 -0.37080 33973 ft 460 kts 336°
2026-05-04 19:37 45.24799 -0.40347 33975 ft 460 kts 336°
2026-05-04 19:38 45.30715 -0.43588 33973 ft 458 kts 336°
2026-05-04 19:38 45.36665 -0.46858 33959 ft 459 kts 336°
2026-05-04 19:39 45.42618 -0.50134 33960 ft 459 kts 336°
2026-05-04 19:39 45.48581 -0.53428 33959 ft 459 kts 336°
2026-05-04 19:40 45.54538 -0.56719 33973 ft 460 kts 336°
2026-05-04 19:40 45.60464 -0.60004 33973 ft 460 kts 336°
2026-05-04 19:41 45.66434 -0.63325 33974 ft 461 kts 336°
2026-05-04 19:41 45.72404 -0.66647 33969 ft 460 kts 336°
2026-05-04 19:42 45.78377 -0.69980 33955 ft 462 kts 336°
2026-05-04 19:42 45.84322 -0.73312 33955 ft 462 kts 336°
2026-05-04 19:43 45.90311 -0.76665 33968 ft 462 kts 336°
2026-05-04 19:43 45.96304 -0.80022 33997 ft 462 kts 336°
2026-05-04 19:44 46.02289 -0.83396 33998 ft 461 kts 336°
2026-05-04 19:44 46.08227 -0.86750 33979 ft 462 kts 336°
2026-05-04 19:45 46.14196 -0.90137 33987 ft 461 kts 336°
2026-05-04 19:45 46.20156 -0.93505 33983 ft 460 kts 339°
2026-05-04 19:46 46.26379 -0.95728 33966 ft 461 kts 347°
2026-05-04 19:46 46.32652 -0.97641 33978 ft 461 kts 346°
2026-05-04 19:47 46.39493 -0.99738 33988 ft 463 kts 347°
2026-05-04 19:47 46.45753 -1.01672 33986 ft 463 kts 347°
2026-05-04 19:48 46.52050 -1.03620 33986 ft 462 kts 347°
2026-05-04 19:48 46.58337 -1.05557 33996 ft 462 kts 347°
2026-05-04 19:49 46.64639 -1.07522 33976 ft 463 kts 347°
2026-05-04 19:49 46.70911 -1.09463 33963 ft 465 kts 347°
2026-05-04 19:50 46.77224 -1.11418 33962 ft 464 kts 347°
2026-05-04 19:50 46.83545 -1.13386 33961 ft 464 kts 347°
2026-05-04 19:51 46.89862 -1.15374 33969 ft 465 kts 347°
2026-05-04 19:51 46.96187 -1.17366 33981 ft 465 kts 347°
2026-05-04 19:52 47.02473 -1.19337 33970 ft 466 kts 347°
2026-05-04 19:52 47.08812 -1.21321 33971 ft 466 kts 347°
2026-05-04 19:53 47.15156 -1.23323 33972 ft 466 kts 347°
2026-05-04 19:53 47.21490 -1.25334 33991 ft 465 kts 347°
2026-05-04 19:54 47.27768 -1.27327 33983 ft 464 kts 347°
2026-05-04 19:54 47.34087 -1.29343 33976 ft 464 kts 347°
2026-05-04 19:55 47.40400 -1.31356 33971 ft 465 kts 347°
2026-05-04 19:55 47.46720 -1.33380 33961 ft 465 kts 347°
2026-05-04 19:56 47.53047 -1.35410 33957 ft 465 kts 347°
2026-05-04 19:56 47.59335 -1.37436 33954 ft 466 kts 347°
2026-05-04 19:57 47.65672 -1.39474 33957 ft 466 kts 347°
2026-05-04 19:57 47.72050 -1.41261 33961 ft 467 kts 356°
2026-05-04 19:58 47.78550 -1.41737 33969 ft 467 kts 357°
2026-05-04 19:58 47.85007 -1.42227 33982 ft 468 kts 356°
2026-05-04 19:59 47.91517 -1.42731 33989 ft 468 kts 356°
2026-05-04 19:59 47.98020 -1.43229 33990 ft 468 kts 357°
2026-05-04 20:00 48.04529 -1.43724 33991 ft 468 kts 357°
2026-05-04 20:00 48.10987 -1.44189 33995 ft 468 kts 357°
2026-05-04 20:01 48.17485 -1.44639 33998 ft 467 kts 357°
2026-05-04 20:01 48.23983 -1.45090 33997 ft 467 kts 357°
2026-05-04 20:02 48.30464 -1.45564 34003 ft 466 kts 357°
2026-05-04 20:02 48.36900 -1.46038 34004 ft 466 kts 357°
2026-05-04 20:03 48.43382 -1.46507 34001 ft 465 kts 357°
2026-05-04 20:03 48.49828 -1.46975 34002 ft 464 kts 357°
2026-05-04 20:04 48.56288 -1.47431 34010 ft 464 kts 357°
2026-05-04 20:04 48.62697 -1.47898 34007 ft 464 kts 357°
2026-05-04 20:05 48.69135 -1.48385 34003 ft 463 kts 357°
2026-05-04 20:05 48.75573 -1.48859 34006 ft 463 kts 357°
2026-05-04 20:06 48.82010 -1.49327 34009 ft 463 kts 357°
2026-05-04 20:06 48.88447 -1.49817 34006 ft 463 kts 356°
2026-05-04 20:07 48.94732 -1.51468 34004 ft 461 kts 347°
2026-05-04 20:07 49.01021 -1.53477 34002 ft 462 kts 347°
2026-05-04 20:08 49.07329 -1.55485 34007 ft 463 kts 347°
2026-05-04 20:08 49.13622 -1.57518 34010 ft 461 kts 347°
2026-05-04 20:09 49.19849 -1.59528 34015 ft 461 kts 347°
2026-05-04 20:09 49.26127 -1.61559 34016 ft 461 kts 347°
2026-05-04 20:10 49.32404 -1.63602 34017 ft 461 kts 347°
2026-05-04 20:10 49.38679 -1.65648 34023 ft 461 kts 347°
2026-05-04 20:11 49.44909 -1.67676 34028 ft 460 kts 347°
2026-05-04 20:11 49.51170 -1.69732 34033 ft 460 kts 347°
2026-05-04 20:12 49.57477 -1.71354 34036 ft 460 kts 358°
2026-05-04 20:12 49.63794 -1.70249 33830 ft 455 kts 17°
2026-05-04 20:12 49.66770 -1.68689 33544 ft 450 kts 21°
2026-05-04 20:13 49.69706 -1.67052 33276 ft 448 kts 21°
2026-05-04 20:13 49.72601 -1.65442 33009 ft 447 kts 21°
2026-05-04 20:13 49.75510 -1.63827 32619 ft 442 kts 21°
2026-05-04 20:13 49.78402 -1.62224 32129 ft 440 kts 21°
2026-05-04 20:14 49.81276 -1.60635 31649 ft 438 kts 21°
2026-05-04 20:14 49.84141 -1.59050 31183 ft 437 kts 21°
2026-05-04 20:14 49.86997 -1.57466 30723 ft 436 kts 21°
2026-05-04 20:14 49.89845 -1.55882 30251 ft 434 kts 21°
2026-05-04 20:15 49.92683 -1.54302 29755 ft 433 kts 21°
2026-05-04 20:15 49.95509 -1.52726 29328 ft 430 kts 21°
2026-05-04 20:15 49.98276 -1.51179 28902 ft 427 kts 21°
2026-05-04 20:15 50.01062 -1.49632 28517 ft 423 kts 20°
2026-05-04 20:16 50.03841 -1.48191 28126 ft 419 kts 19°
2026-05-04 20:16 50.06617 -1.46839 27720 ft 417 kts 18°
2026-05-04 20:16 50.09386 -1.45534 27319 ft 415 kts 18°
2026-05-04 20:16 50.12142 -1.44238 26913 ft 413 kts 18°
2026-05-04 20:17 50.14884 -1.42931 26500 ft 411 kts 19°
2026-05-04 20:17 50.17580 -1.41627 26086 ft 411 kts 19°
2026-05-04 20:17 50.20301 -1.40297 25652 ft 409 kts 19°
2026-05-04 20:17 50.23014 -1.38963 25217 ft 408 kts 19°
2026-05-04 20:18 50.25699 -1.37638 24764 ft 397 kts 19°
2026-05-04 20:18 50.28284 -1.36362 24353 ft 384 kts 18°
2026-05-04 20:18 50.30791 -1.35122 23926 ft 372 kts 18°
2026-05-04 20:18 50.33220 -1.33922 23512 ft 361 kts 18°
2026-05-04 20:19 50.35583 -1.32755 23078 ft 349 kts 19°
2026-05-04 20:19 50.37855 -1.31631 22691 ft 337 kts 19°
2026-05-04 20:19 50.40060 -1.30540 22323 ft 333 kts 19°
2026-05-04 20:19 50.42274 -1.29438 21934 ft 334 kts 19°
2026-05-04 20:20 50.44460 -1.28356 21560 ft 332 kts 19°
2026-05-04 20:20 50.46660 -1.27255 21184 ft 334 kts 20°
2026-05-04 20:20 50.48856 -1.26084 20800 ft 332 kts 24°
2026-05-04 20:20 50.50895 -1.24434 20421 ft 329 kts 35°
2026-05-04 20:21 50.52698 -1.22261 20041 ft 326 kts 42°
2026-05-04 20:21 50.54431 -1.19977 19664 ft 325 kts 42°
2026-05-04 20:21 50.57891 -1.15435 18909 ft 324 kts 42°
2026-05-04 20:22 50.59619 -1.13170 18533 ft 323 kts 42°
2026-05-04 20:22 50.61341 -1.10906 18132 ft 322 kts 42°
2026-05-04 20:22 50.63031 -1.08680 17740 ft 320 kts 42°
2026-05-04 20:22 50.64738 -1.06425 17350 ft 319 kts 41°
2026-05-04 20:23 50.66337 -1.04034 16985 ft 315 kts 51°
2026-05-04 20:23 50.67724 -1.01372 16615 ft 313 kts 52°
2026-05-04 20:23 50.69101 -0.98719 16246 ft 312 kts 51°
2026-05-04 20:23 50.70473 -0.96075 15881 ft 311 kts 51°
2026-05-04 20:24 50.71841 -0.93438 15514 ft 310 kts 51°
2026-05-04 20:24 50.73207 -0.90809 15152 ft 309 kts 51°
2026-05-04 20:24 50.74548 -0.88224 14793 ft 308 kts 51°
2026-05-04 20:24 50.75899 -0.85608 14430 ft 307 kts 51°
2026-05-04 20:25 50.77246 -0.82987 14067 ft 307 kts 51°
2026-05-04 20:25 50.78590 -0.80374 13689 ft 306 kts 51°
2026-05-04 20:25 50.79923 -0.77760 13303 ft 304 kts 54°
2026-05-04 20:25 50.80971 -0.74874 12932 ft 302 kts 68°
2026-05-04 20:26 50.81558 -0.71709 12546 ft 300 kts 79°
2026-05-04 20:26 50.81934 -0.68462 12169 ft 300 kts 79°
2026-05-04 20:26 50.82313 -0.65234 11804 ft 298 kts 79°
2026-05-04 20:26 50.82688 -0.62028 11433 ft 297 kts 80°
2026-05-04 20:27 50.83061 -0.58827 11109 ft 294 kts 79°
2026-05-04 20:27 50.83427 -0.55683 10755 ft 293 kts 80°
2026-05-04 20:27 50.83797 -0.52507 10363 ft 294 kts 80°
2026-05-04 20:27 50.84160 -0.49363 9974 ft 288 kts 80°
2026-05-04 20:28 50.84517 -0.46245 9542 ft 289 kts 80°
2026-05-04 20:28 50.84871 -0.43127 9164 ft 288 kts 80°
2026-05-04 20:28 50.85223 -0.40018 8800 ft 287 kts 80°
2026-05-04 20:28 50.85573 -0.36920 8450 ft 285 kts 80°
2026-05-04 20:29 50.85804 -0.34887 8255 ft 283 kts 80°
2026-05-04 20:29 50.86267 -0.30835 7781 ft 282 kts 80°
2026-05-04 20:29 50.86613 -0.27789 7445 ft 279 kts 80°
2026-05-04 20:29 50.86954 -0.24775 7125 ft 277 kts 79°
2026-05-04 20:30 50.87290 -0.21761 6769 ft 277 kts 79°
2026-05-04 20:30 50.87624 -0.18759 6399 ft 277 kts 80°
2026-05-04 20:30 50.87842 -0.16790 6289 ft 271 kts 79°
2026-05-04 20:30 50.88163 -0.13897 6154 ft 263 kts 79°
2026-05-04 20:31 50.88479 -0.11098 6031 ft 254 kts 79°
2026-05-04 20:31 50.88877 -0.08428 5909 ft 244 kts 64°
2026-05-04 20:31 50.90382 -0.06005 5593 ft 236 kts 22°
2026-05-04 20:31 50.91969 -0.05626 5362 ft 231 kts 352°
2026-05-04 20:32 50.93426 -0.06554 5156 ft 226 kts 322°
2026-05-04 20:32 50.94412 -0.08452 4965 ft 224 kts 302°
2026-05-04 20:32 50.94944 -0.09854 4836 ft 224 kts 302°
2026-05-04 20:32 50.95746 -0.11968 4639 ft 224 kts 303°
2026-05-04 20:33 50.96554 -0.14078 4430 ft 224 kts 303°
2026-05-04 20:33 50.97364 -0.16187 4251 ft 223 kts 303°
2026-05-04 20:33 50.98169 -0.18292 4047 ft 223 kts 301°
2026-05-04 20:33 50.98741 -0.20579 3901 ft 224 kts 285°
2026-05-04 20:34 50.99120 -0.22984 3746 ft 224 kts 285°
2026-05-04 20:34 50.99499 -0.25381 3590 ft 224 kts 285°
2026-05-04 20:34 50.99882 -0.27775 3430 ft 224 kts 286°
2026-05-04 20:34 51.00266 -0.30167 3271 ft 223 kts 286°
2026-05-04 20:35 51.00647 -0.32557 3115 ft 223 kts 285°
2026-05-04 20:35 51.01017 -0.34886 3019 ft 216 kts 285°
2026-05-04 20:35 51.01378 -0.37150 3001 ft 208 kts 286°
2026-05-04 20:35 51.01731 -0.39358 3005 ft 206 kts 286°
2026-05-04 20:36 51.02081 -0.41560 3009 ft 205 kts 286°
2026-05-04 20:36 51.02432 -0.43767 3010 ft 206 kts 286°
2026-05-04 20:36 51.02783 -0.45974 3007 ft 206 kts 286°
2026-05-04 20:36 51.03132 -0.48182 3009 ft 207 kts 286°
2026-05-04 20:37 51.03484 -0.50396 3006 ft 207 kts 286°
2026-05-04 20:37 51.03887 -0.52555 3001 ft 206 kts 300°
2026-05-04 20:37 51.04860 -0.54117 3006 ft 198 kts 339°
2026-05-04 20:37 51.06180 -0.54423 3028 ft 193 kts
2026-05-04 20:38 51.07525 -0.54206 3008 ft 194 kts
2026-05-04 20:38 51.08846 -0.53912 3013 ft 187 kts 22°
2026-05-04 20:38 51.09859 -0.52851 3009 ft 167 kts 50°
2026-05-04 20:38 51.10367 -0.51309 2989 ft 151 kts 76°
2026-05-04 20:39 51.10571 -0.49706 2994 ft 145 kts 78°
2026-05-04 20:39 51.10785 -0.48097 3009 ft 156 kts 77°
2026-05-04 20:39 51.11011 -0.46391 3000 ft 159 kts 77°
2026-05-04 20:39 51.11238 -0.44686 3013 ft 160 kts 77°
2026-05-04 20:40 51.11482 -0.42963 2994 ft 160 kts 76°
2026-05-04 20:40 51.11722 -0.41239 2816 ft 159 kts 76°
2026-05-04 20:40 51.11960 -0.39533 2620 ft 158 kts 76°
2026-05-04 20:40 51.12197 -0.37843 2415 ft 155 kts 76°
2026-05-04 20:41 51.12432 -0.36182 2199 ft 152 kts 76°
2026-05-04 20:41 51.12659 -0.34554 1998 ft 150 kts 76°
2026-05-04 20:41 51.12874 -0.32972 2024 ft 144 kts 77°
2026-05-04 20:41 51.13081 -0.31399 2404 ft 152 kts 77°
2026-05-04 20:42 51.13459 -0.29658 2582 ft 179 kts 61°
2026-05-04 20:42 51.14303 -0.28118 2896 ft 200 kts 33°
2026-05-04 20:42 51.15655 -0.27456 2995 ft 210 kts
2026-05-04 20:42 51.17123 -0.27382 2998 ft 212 kts
2026-05-04 20:43 51.18599 -0.27400 3009 ft 212 kts
2026-05-04 20:43 51.20074 -0.27429 3009 ft 212 kts
2026-05-04 20:43 51.21552 -0.27544 3007 ft 214 kts 348°
2026-05-04 20:43 51.22842 -0.28689 3007 ft 218 kts 313°
2026-05-04 20:44 51.23512 -0.30854 3009 ft 223 kts 280°
2026-05-04 20:44 51.23596 -0.33327 3012 ft 224 kts 266°
2026-05-04 20:44 51.23403 -0.35804 3008 ft 225 kts 262°
2026-05-04 20:44 51.23156 -0.38270 3009 ft 225 kts 261°
2026-05-04 20:45 51.22899 -0.40705 3007 ft 226 kts 261°
2026-05-04 20:45 51.22631 -0.43176 3012 ft 227 kts 261°
2026-05-04 20:45 51.22364 -0.45655 3012 ft 226 kts 261°
2026-05-04 20:45 51.22100 -0.48116 3011 ft 225 kts 261°
2026-05-04 20:46 51.21834 -0.50577 3007 ft 225 kts 261°
2026-05-04 20:46 51.21571 -0.53036 3009 ft 225 kts 261°
2026-05-04 20:46 51.21306 -0.55497 3001 ft 226 kts 261°
2026-05-04 20:46 51.21041 -0.57956 3012 ft 225 kts 261°
2026-05-04 20:47 51.20776 -0.60419 3009 ft 225 kts 261°
2026-05-04 20:47 51.20514 -0.62879 3009 ft 225 kts 261°
2026-05-04 20:47 51.20251 -0.65335 3010 ft 225 kts 261°
2026-05-04 20:47 51.19991 -0.67786 3006 ft 224 kts 261°
2026-05-04 20:48 51.19732 -0.70206 3006 ft 225 kts 261°
2026-05-04 20:48 51.19468 -0.72665 3005 ft 225 kts 260°
2026-05-04 20:48 51.18924 -0.74981 3002 ft 225 kts 231°
2026-05-04 20:48 51.17698 -0.76447 3010 ft 222 kts 196°
2026-05-04 20:49 51.16192 -0.76559 3004 ft 218 kts 160°
2026-05-04 20:49 51.14923 -0.75350 3006 ft 214 kts 135°
2026-05-04 20:49 51.13773 -0.73849 3005 ft 214 kts 140°
2026-05-04 20:49 51.12581 -0.72432 2998 ft 211 kts 141°
2026-05-04 20:50 51.11427 -0.71085 2995 ft 202 kts 141°
2026-05-04 20:50 51.10420 -0.69591 3009 ft 196 kts 120°
2026-05-04 20:50 51.09780 -0.67696 3007 ft 193 kts 112°
2026-05-04 20:50 51.09239 -0.65774 2996 ft 193 kts 111°
2026-05-04 20:51 51.08783 -0.63778 3005 ft 191 kts 97°
2026-05-04 20:51 51.08823 -0.61700 3011 ft 188 kts 77°
2026-05-04 20:51 51.09114 -0.59656 3002 ft 189 kts 76°
2026-05-04 20:51 51.09407 -0.57621 3008 ft 188 kts 76°
2026-05-04 20:52 51.09698 -0.55586 3006 ft 188 kts 76°
2026-05-04 20:52 51.09984 -0.53553 3006 ft 190 kts 76°
2026-05-04 20:52 51.10277 -0.51498 3012 ft 190 kts 76°
2026-05-04 20:52 51.10563 -0.49470 3012 ft 191 kts 76°
2026-05-04 20:53 51.10852 -0.47414 3014 ft 190 kts 77°
2026-05-04 20:53 51.11132 -0.45427 3037 ft 176 kts 77°
2026-05-04 20:53 51.11389 -0.43596 2991 ft 164 kts 77°
2026-05-04 20:53 51.11636 -0.41841 2854 ft 161 kts 76°
2026-05-04 20:54 51.11876 -0.40129 2681 ft 157 kts 76°
2026-05-04 20:54 51.12113 -0.38440 2481 ft 155 kts 76°
2026-05-04 20:54 51.12345 -0.36778 2278 ft 152 kts 77°
2026-05-04 20:54 51.12576 -0.35147 2082 ft 153 kts 77°
2026-05-04 20:55 51.12805 -0.33496 1886 ft 154 kts 76°
2026-05-04 20:55 51.13034 -0.31845 1665 ft 151 kts 74°
2026-05-04 20:55 51.13255 -0.30261 1434 ft 140 kts 77°
2026-05-04 20:55 51.13464 -0.28765 1267 ft 137 kts 78°
2026-05-04 20:56 51.13666 -0.27308 1111 ft 134 kts 77°
2026-05-04 20:56 51.13868 -0.25869 911 ft 132 kts 79°
2026-05-04 20:56 51.14064 -0.24435 736 ft 132 kts 75°
2026-05-04 20:56 51.14264 -0.23017 557 ft 132 kts 77°
2026-05-04 20:57 51.14463 -0.21590 369 ft 132 kts 77°
2026-05-04 20:57 51.14655 -0.20162 222 ft 129 kts 76°
2026-05-04 20:57 51.14822 -0.18983 204 ft 87 kts 77°
2026-05-04 20:57 51.14915 -0.18305 208 ft 38 kts 77°
2026-05-04 20:58 51.14975 -0.17981 208 ft 26 kts 61°
2026-05-04 20:58 51.15058 -0.17793 214 ft 10 kts 52°
2026-05-04 20:58 51.15126 -0.17755 205 ft 12 kts 354°
2026-05-04 20:58 51.15178 -0.17711 205 ft 10 kts 66°
2026-05-04 20:59 51.15195 -0.17592 204 ft 10 kts 77°
2026-05-04 20:59 51.15207 -0.17511 204 ft 8 kts 77°
2026-05-04 20:59 51.15217 -0.17439 211 ft 0 kts 77°
2026-05-04 21:00 51.15217 -0.17435 204 ft 1 kts 77°
2026-05-04 21:00 51.15221 -0.17405 204 ft 4 kts 77°
2026-05-04 21:00 51.15239 -0.17346 210 ft 9 kts 37°
2026-05-04 21:01 51.15307 -0.17355 211 ft 12 kts 348°
2026-05-04 21:01 51.15360 -0.17327 213 ft 8 kts 65°
2026-05-04 21:01 51.15380 -0.17222 210 ft 11 kts 72°
2026-05-04 21:01 51.15406 -0.17124 212 ft 10 kts 70°
2026-05-04 21:02 51.15424 -0.17000 204 ft 13 kts 78°
2026-05-04 21:02 51.15445 -0.16849 204 ft 12 kts 77°
2026-05-04 21:02 51.15448 -0.16747 204 ft 8 kts 111°
2026-05-04 21:02 51.15449 -0.16656 204 ft 8 kts 77°
2026-05-04 21:03 51.15462 -0.16563 214 ft 10 kts 77°
2026-05-04 21:03 51.15473 -0.16513 207 ft 2 kts 44°
2026-05-04 21:03 51.15493 -0.16519 212 ft 4 kts 353°
2026-05-04 21:03 51.15528 -0.16531 214 ft 3 kts 347°
2026-05-04 21:04 51.15537 -0.16534 204 ft 1 kts 347°
2026-05-04 21:04 51.15541 -0.16535 204 ft 0 kts 348°